Change the Weather History Date:

Wednesday, October 31, 2012

  Actual Average Record
Temperature  
Mean Temperature 50 °F 50 °F  
Max Temperature 67 °F 61 °F 82 °F (1944)
Min Temperature 33 °F 38 °F 14 °F (1993)
Degree Days  
Heating Degree Days 15 16  
Month to date heating degree days 370 319  
Since 1 July heating degree days 447 391  
Cooling Degree Days 0 0  
Month to date cooling degree days 3 22  
Year to date cooling degree days 1643 1348  
Moisture  
Dew Point 34 °F    
Average Humidity 58    
Maximum Humidity 82    
Minimum Humidity 34    
Precipitation  
Precipitation 0.00 in 0.05 in 1.39 in (1928)
Month to date precipitation 3.30 1.92  
Year to date precipitation 22.63 25.93  
Snow  
Snow 0.00 in 0.00 in 3.50 in (1991)
Month to date snowfall 0.0 0.2  
Year to date snowfall 5.8 13.9  
Since 1 July snowfall 0.0 0.2  
Snow Depth 0.00 in    
Sea Level Pressure  
Sea Level Pressure 30.03 in    
Wind  
Wind Speed 4 mph (South)    
Max Wind Speed 14 mph    
Max Gust Speed 17 mph    
Visibility 10 miles    
Events      
T = Trace of Precipitation, MM = Missing Value Source: NWS Daily Summary

Daily Weather History Graph

Daily Weather History Graph

Search for Another Location

Airport or City:

Trip Planner

Search our weather history database for the weather conditions in past years. The results will help you decide how hot, cold, wet, or windy it might be!

Date:

Astronomy

Oct. 31, 2012 Rise Set
Actual Time 7:58 AM CDT 6:29 PM CDT
Civil Twilight 7:30 AM CDT 6:57 PM CDT
Nautical Twilight 6:58 AM CDT 7:29 PM CDT
Astronomical Twilight 6:27 AM CDT 8:00 PM CDT
Moon 7:42 PM CDT (10/31) 9:40 AM CDT (10/31)
Length of Visible Light 11h 26m
Length of Day
10h 31m
Full, 97% of the Moon is Illuminated
Oct 31
Full
Nov 6
Last Quarter
Nov 13
New
Nov 20
First Quarter
Nov 28
Full

Hourly Weather History & Observations

Time (CDT) Temp. Windchill Dew Point Humidity Pressure Visibility Wind Dir Wind Speed Gust Speed Precip Events Conditions
12:55 AM 37.9 °F 35.5 °F 30.0 °F 73% 30.03 in 10.0 mi East 3.5 mph - N/A   Partly Cloudy
1:55 AM 39.0 °F 36.8 °F 30.0 °F 70% 30.03 in 10.0 mi SE 3.5 mph - N/A   Partly Cloudy
2:55 AM 39.0 °F - 30.0 °F 70% 30.04 in 10.0 mi Calm Calm - N/A   Scattered Clouds
3:55 AM 37.9 °F - 30.0 °F 73% 30.05 in 10.0 mi Calm Calm - N/A   Partly Cloudy
4:55 AM 36.0 °F - 28.9 °F 76% 30.05 in 10.0 mi Calm Calm - N/A   Clear
5:55 AM 36.0 °F - 28.9 °F 76% 30.06 in 10.0 mi Calm Calm - N/A   Clear
6:55 AM 36.0 °F - 28.9 °F 76% 30.06 in 10.0 mi Calm Calm - N/A   Clear
7:55 AM 34.0 °F 31.0 °F 28.9 °F 82% 30.07 in 9.0 mi SE 3.5 mph - N/A   Overcast
8:55 AM 37.9 °F - 30.9 °F 76% 30.07 in 10.0 mi Calm Calm - N/A   Clear
9:55 AM 46.9 °F - 35.1 °F 63% 30.07 in 10.0 mi Calm Calm - N/A   Clear
10:55 AM 54.0 °F - 36.0 °F 51% 30.08 in 10.0 mi SW 8.1 mph - N/A   Clear
11:55 AM 57.9 °F - 36.0 °F 44% 30.07 in 10.0 mi Variable 4.6 mph - N/A   Clear
12:55 PM 62.1 °F - 37.0 °F 39% 30.05 in 10.0 mi Variable 4.6 mph - N/A   Clear
1:55 PM 64.0 °F - 37.0 °F 37% 30.02 in 10.0 mi SSW 3.5 mph - N/A   Clear
2:55 PM 66.0 °F - 37.9 °F 36% 29.99 in 10.0 mi SSW 6.9 mph - N/A   Clear
3:55 PM 66.9 °F - 37.9 °F 34% 29.97 in 10.0 mi SSW 8.1 mph - N/A   Clear
4:55 PM 66.9 °F - 37.9 °F 34% 29.97 in 10.0 mi WSW 4.6 mph - N/A   Clear
5:55 PM 64.0 °F - 39.0 °F 40% 29.98 in 10.0 mi Calm Calm - N/A   Clear
6:55 PM 60.1 °F - 39.0 °F 46% 30.00 in 10.0 mi Calm Calm - N/A   Clear
7:55 PM 57.9 °F - 39.0 °F 49% 30.02 in 10.0 mi South 4.6 mph - N/A   Clear
8:55 PM 52.0 °F - 37.9 °F 59% 30.02 in 10.0 mi South 6.9 mph - N/A   Clear
9:55 PM 52.0 °F - 37.9 °F 59% 30.01 in 10.0 mi South 5.8 mph - N/A   Clear
10:55 PM 55.0 °F - 37.9 °F 53% 29.99 in 10.0 mi South 11.5 mph - N/A   Clear
11:55 PM 54.0 °F - 37.0 °F 53% 30.00 in 10.0 mi SSW 12.7 mph - N/A   Clear